• In Switzerland
  • List of Countries
  • For 7 days
  • Water Temperature
  • Satellite Maps
  • Weather Map
  • Weather Widgets
  • user-avatar
    Login

    Hourly Weather Semnan

    Today, 18 October, Thursday

    Time Temperature Precipitation Wind Pressure Humidity
    00:00 +17°C° 0 mm 0 mps 683 mmHg 47%
    01:00 +16°C° 0 mm 0 mps 683 mmHg 48%
    02:00 +16°C° 0 mm 0 mps 683 mmHg 48%
    03:00 +16°C° 0 mm 0 mps 683 mmHg 49%
    04:00 +15°C° 0 mm 0 mps 683 mmHg 48%
    05:00 +15°C° 0 mm 0 mps 683 mmHg 49%
    06:00 +15°C° 0 mm 0 mps 683 mmHg 49%
    07:00 +16°C° 0 mm 1 mps 683 mmHg 49%
    08:00 +18°C° 0 mm 1 mps 683 mmHg 46%
    09:00 +19°C° 0 mm 1 mps 683 mmHg 42%
    10:00 +20°C° 0 mm 1 mps 684 mmHg 38%
    11:00 +21°C° 0 mm 1 mps 684 mmHg 36%
    12:00 +21°C° 0 mm 1 mps 683 mmHg 35%
    13:00 +22°C° 0 mm 1 mps 683 mmHg 33%
    14:00 +22°C° 0 mm 1 mps 683 mmHg 33%
    15:00 +22°C° 0 mm 1 mps 683 mmHg 32%
    16:00 +23°C° 0 mm 1 mps 683 mmHg 32%
    17:00 +22°C° 0 mm 1 mps 683 mmHg 34%
    18:00 +22°C° 0 mm 1 mps 683 mmHg 35%
    19:00 +19°C° 0 mm 0 mps 683 mmHg 37%
    20:00 +21°C° 0 mm 1 mps 683 mmHg 38%
    21:00 +20°C° 0 mm 1 mps 683 mmHg 39%
    22:00 +20°C° 0 mm 1 mps 683 mmHg 40%
    23:00 +19°C° 0 mm 1 mps 683 mmHg 40%

    Tomorrow, 19 October, Friday

    Time Temperature Precipitation Wind Pressure Humidity
    00:00 +19°C° 0 mm 1 mps 683 mmHg 41%
    01:00 +18°C° 0 mm 1 mps 683 mmHg 41%
    02:00 +18°C° 0 mm 1 mps 683 mmHg 41%
    03:00 +18°C° 0 mm 1 mps 683 mmHg 42%
    04:00 +16°C° 0 mm 1 mps 683 mmHg 42%
    05:00 +16°C° 0 mm 1 mps 683 mmHg 43%
    06:00 +16°C° 0 mm 1 mps 683 mmHg 44%
    07:00 +15°C° 0 mm 1 mps 683 mmHg 45%
    08:00 +18°C° 0 mm 1 mps 683 mmHg 42%
    09:00 +19°C° 0 mm 1 mps 684 mmHg 38%
    10:00 +19°C° 0 mm 2 mps 684 mmHg 35%
    11:00 +20°C° 0 mm 2 mps 684 mmHg 33%
    12:00 +21°C° 0 mm 2 mps 684 mmHg 32%
    13:00 +21°C° 0 mm 2 mps 684 mmHg 31%
    14:00 +23°C° 0 mm 2 mps 684 mmHg 31%
    15:00 +23°C° 0 mm 2 mps 683 mmHg 30%
    16:00 +23°C° 0 mm 2 mps 683 mmHg 30%
    17:00 +22°C° 0 mm 1 mps 683 mmHg 32%
    18:00 +22°C° 0 mm 1 mps 683 mmHg 34%
    19:00 +21°C° 0 mm 1 mps 683 mmHg 36%
    20:00 +21°C° 0 mm 1 mps 683 mmHg 38%
    21:00 +20°C° 0 mm 1 mps 683 mmHg 40%
    22:00 +20°C° 0 mm 1 mps 683 mmHg 42%
    23:00 +19°C° 0 mm 1 mps 683 mmHg 43%

    Day after tomorrow, 20 October, Saturday

    Time Temperature Precipitation Wind Pressure Humidity
    00:00 +17°C° 0 mm 0 mps 683 mmHg 44%
    01:00 +16°C° 0 mm 0 mps 683 mmHg 46%
    02:00 +16°C° 0 mm 0 mps 682 mmHg 47%
    03:00 +16°C° 0 mm 0 mps 682 mmHg 48%
    04:00 +16°C° 0 mm 1 mps 682 mmHg 49%
    05:00 +16°C° 0 mm 1 mps 682 mmHg 49%
    06:00 +16°C° 0 mm 1 mps 682 mmHg 49%
    07:00 +16°C° 0 mm 1 mps 682 mmHg 49%
    08:00 +18°C° 0 mm 1 mps 683 mmHg 44%
    09:00 +20°C° 0 mm 1 mps 683 mmHg 38%
    10:00 +20°C° 0 mm 2 mps 684 mmHg 33%
    11:00 +21°C° 0 mm 2 mps 683 mmHg 31%
    12:00 +23°C° 0 mm 2 mps 683 mmHg 29%
    13:00 +23°C° 0 mm 2 mps 683 mmHg 28%
    14:00 +23°C° 0 mm 2 mps 683 mmHg 27%
    15:00 +24°C° 0 mm 2 mps 682 mmHg 27%
    16:00 +24°C° 0 mm 1 mps 682 mmHg 27%
    17:00 +23°C° 0 mm 1 mps 682 mmHg 29%
    18:00 +23°C° 0 mm 1 mps 682 mmHg 31%
    19:00 +22°C° 0 mm 1 mps 682 mmHg 32%
    20:00 +22°C° 0 mm 1 mps 682 mmHg 33%
    21:00 +21°C° 0 mm 1 mps 682 mmHg 34%
    22:00 +21°C° 0 mm 1 mps 682 mmHg 36%
    23:00 +20°C° 0 mm 1 mps 682 mmHg 36%

    21 October, Sunday

    Time Temperature Precipitation Wind Pressure Humidity
    00:00 +20°C° 0 mm 1 mps 681 mmHg 37%
    01:00 +20°C° 0 mm 1 mps 681 mmHg 38%
    02:00 +19°C° 0 mm 1 mps 681 mmHg 39%
    03:00 +19°C° 0 mm 1 mps 681 mmHg 39%
    04:00 +19°C° 0 mm 1 mps 681 mmHg 40%
    05:00 +18°C° 0 mm 1 mps 681 mmHg 40%
    06:00 +18°C° 0 mm 1 mps 681 mmHg 41%
    07:00 +18°C° 0 mm 1 mps 681 mmHg 41%
    08:00 +19°C° 0 mm 1 mps 681 mmHg 37%
    09:00 +21°C° 0 mm 1 mps 682 mmHg 32%
    10:00 +22°C° 0 mm 1 mps 682 mmHg 28%
    11:00 +23°C° 0 mm 1 mps 682 mmHg 27%
    12:00 +24°C° 0 mm 1 mps 682 mmHg 26%
    13:00 +25°C° 0 mm 2 mps 682 mmHg 25%
    14:00 +25°C° 0 mm 2 mps 681 mmHg 25%
    15:00 +25°C° 0 mm 2 mps 681 mmHg 25%
    16:00 +26°C° 0 mm 2 mps 681 mmHg 25%
    17:00 +25°C° 0 mm 1 mps 681 mmHg 28%
    18:00 +24°C° 0 mm 1 mps 681 mmHg 31%
    19:00 +23°C° 0 mm 1 mps 681 mmHg 33%
    20:00 +23°C° 0 mm 1 mps 681 mmHg 34%
    21:00 +22°C° 0 mm 1 mps 681 mmHg 35%
    22:00 +22°C° 0 mm 1 mps 681 mmHg 36%
    23:00 +21°C° 0 mm 1 mps 680 mmHg 37%

    22 October, Monday

    Time Temperature Precipitation Wind Pressure Humidity
    00:00 +21°C° 0 mm 1 mps 680 mmHg 37%
    01:00 +20°C° 0 mm 1 mps 680 mmHg 38%
    02:00 +20°C° 0 mm 1 mps 680 mmHg 38%
    03:00 +20°C° 0 mm 1 mps 679 mmHg 39%
    04:00 +19°C° 0 mm 1 mps 679 mmHg 39%
    05:00 +19°C° 0 mm 1 mps 679 mmHg 40%
    06:00 +19°C° 0 mm 1 mps 680 mmHg 40%
    07:00 +19°C° 0 mm 1 mps 680 mmHg 40%
    08:00 +21°C° 0 mm 1 mps 680 mmHg 36%
    09:00 +22°C° 0 mm 1 mps 681 mmHg 33%
    10:00 +24°C° 0 mm 1 mps 681 mmHg 29%
    11:00 +25°C° 0 mm 2 mps 681 mmHg 28%
    12:00 +26°C° 0 mm 3 mps 681 mmHg 27%
    13:00 +27°C° 0 mm 3 mps 681 mmHg 26%
    14:00 +27°C° 0 mm 4 mps 681 mmHg 26%
    15:00 +27°C° 0 mm 4 mps 680 mmHg 26%
    16:00 +27°C° 0 mm 4 mps 680 mmHg 26%
    17:00 +26°C° 0 mm 3 mps 680 mmHg 29%
    18:00 +25°C° 0 mm 2 mps 680 mmHg 32%
    19:00 +24°C° 0 mm 1 mps 681 mmHg 35%
    20:00 +24°C° 0 mm 1 mps 680 mmHg 36%
    21:00 +23°C° 0 mm 1 mps 680 mmHg 38%
    22:00 +22°C° 0 mm 1 mps 680 mmHg 39%
    23:00 +22°C° 0 mm 1 mps 680 mmHg 40%

    23 October, Tuesday

    Time Temperature Precipitation Wind Pressure Humidity
    00:00 +20°C° 0 mm 0 mps 680 mmHg 41%
    01:00 +19°C° 0 mm 0 mps 680 mmHg 42%
    02:00 +19°C° 0 mm 0 mps 680 mmHg 42%
    03:00 +20°C° 0 mm 1 mps 680 mmHg 42%
    04:00 +20°C° 0 mm 1 mps 680 mmHg 43%
    05:00 +20°C° 0 mm 1 mps 680 mmHg 43%
    06:00 +18°C° 0 mm 0 mps 680 mmHg 44%
    07:00 +17°C° 0 mm 0 mps 680 mmHg 44%
    08:00 +21°C° 0 mm 1 mps 681 mmHg 39%
    09:00 +23°C° 0 mm 1 mps 682 mmHg 34%
    10:00 +25°C° 0 mm 1 mps 682 mmHg 29%
    11:00 +26°C° 0 mm 1 mps 682 mmHg 27%
    12:00 +27°C° 0 mm 2 mps 682 mmHg 25%
    13:00 +27°C° 0 mm 3 mps 682 mmHg 23%
    14:00 +28°C° 0 mm 3 mps 682 mmHg 23%
    15:00 +28°C° 0 mm 3 mps 682 mmHg 22%
    16:00 +28°C° 0 mm 3 mps 682 mmHg 21%
    17:00 +27°C° 0 mm 2 mps 682 mmHg 24%
    18:00 +26°C° 0 mm 2 mps 682 mmHg 26%
    19:00 +24°C° 0 mm 1 mps 682 mmHg 29%
    20:00 +24°C° 0 mm 1 mps 681 mmHg 30%
    21:00 +23°C° 0 mm 1 mps 681 mmHg 31%
    22:00 +20°C° 0 mm 0 mps 681 mmHg 32%
    23:00 +20°C° 0 mm 0 mps 681 mmHg 32%
    Show more